Location: Baller�as
(41.9020°N, 0.1554°W)
Time: 11:26:41
(UTC+00:00)

Cosmos 2360 Rocket - Pass Details

Date: 10 August 2020
Orbit: 833 x 845 km, 71.0° (Epoch: 21 September)

Event Time Altitude Azimuth Distance (km) Brightness Sun altitude
Rises 21:41:00 0° 344° (NNW) 3,413 6.5 -23.8°
Reaches altitude 10° 21:43:53 10° 358° (N) 2,474 5.3 -24.2°
Maximum altitude 21:48:35 26° 53° (NE) 1,614 3.6 -24.7°
Enters shadow 21:49:35 25° 70° (ENE) 1,663 3.5 -24.8°
